Terminal Aerodrome Forecast
Issued by NWS Wakefield, VA

Home | Current Version | Previous Version | Text Only | Print | Product List | Glossary On
Versions: 1 2 3 4 5 6 7 8 9 10 11 12 13 14 15 16 17 18 19 20
000
FTUS41 KAKQ 250800 AAA
TAFRIC
TAF AMD
KRIC 250830Z 2509/2606 25011KT P6SM SCT020 BKN060
     FM251000 27010KT P6SM SCT025 BKN040
     FM251300 29012G20KT P6SM SCT040 SCT100 BKN250
     FM251800 30013KT P6SM FEW050 SCT250=

USA.gov is the U.S. government's official web portal to all federal, state and local government web resources and services.